User: anonymous   Login
Location: Theydon Bois
(51.6750°N, 0.1050°E)
Time: 03:37:15
(UTC+01:00)
Language:

Cosmos 1833 Rocket - Orbit

View from above orbital plane
View from above orbital plane
View from above satellite
View from above satellite

Ground track
Ground track

The orbit data is extracted from the following two-line orbital elements,

1 17590U 87027B   18200.84964949  .00000191  00000-0  11919-3 0  9995
2 17590  71.0030  32.5841 0003469  37.2180 322.9184 14.16760552620443
Epoch (UTC): 19 July 2018 20:23:29
Eccentricity: 0.0003469
inclination: 71.0030°
perigee height: 834 km
apogee height: 839 km
right ascension of ascending node: 32.5841°
argument of perigee: 37.2180°
revolutions per day: 14.16760552
mean anomaly at epoch: 322.9184°
orbit number at epoch: 62044

The dashed part of the orbit path shows where the satellite is in the earth's shadow,  

DLR